LRBS Weather Reports


Display with metric or nautical units.
time (UTC)temp
F
wind
direction
speed
MPH
gust
MPH
rain 1hr
in
rain 24hr
in
rain mn
in
humidity
%
barometer
mb
20260504044814 46 290 5.0 0.0 0.00 0.00 0.00 66 1017.0
20260504043314 46 290 5.0 0.0 0.00 0.00 0.00 66 1017.0
20260504041814 45 290 6.0 0.0 0.00 0.00 0.00 71 1017.0
20260504040314 45 290 6.0 0.0 0.00 0.00 0.00 71 1017.0
20260504034814 43 290 5.0 0.0 0.00 0.00 0.00 76 1017.0
20260504033314 43 290 5.0 0.0 0.00 0.00 0.00 76 1017.0
20260504031814 43 290 6.0 0.0 0.00 0.00 0.00 76 1017.0
20260504030430 43 290 6.0 0.0 0.00 0.00 0.00 76
20260504024815 43 280 5.0 0.0 0.00 0.00 0.00 71 1017.0
20260504023314 43 280 5.0 0.0 0.00 0.00 0.00 71 1017.0
20260504021813 45 280 5.0 0.0 0.00 0.00 0.00 71 1017.0
20260504020314 45 280 5.0 0.0 0.00 0.00 0.00 71 1017.0
20260504014814 45 290 5.0 0.0 0.00 0.00 0.00 71 1018.0
20260504013319 45 290 5.0 0.0 0.00 0.00 0.00 71 1018.0
20260504011930 43 290 5.0 0.0 0.00 0.00 0.00 76 1018.0
20260504010314 43 290 5.0 0.0 0.00 0.00 0.00 76 1018.0
20260504004930 45 280 5.0 0.0 0.00 0.00 0.00 71 1018.0
20260504003314 45 280 5.0 0.0 0.00 0.00 0.00 71 1018.0
20260504001814 45 270 5.0 0.0 0.00 0.00 0.00 71 1018.0
20260504000314 45 270 5.0 0.0 0.00 0.00 0.00 71 1018.0
20260503234853 45 310 5.0 0.0 0.00 0.00 0.00 71 1018.0
20260503233314 45 310 5.0 0.0 0.00 0.00 0.00 71 1018.0
20260503231817 45 5.0 0.0 0.00 0.00 0.00 71 1018.0
20260503230326 45 5.0 0.0 0.00 0.00 0.00 71 1018.0
20260503224814 45 290 8.0 0.0 0.00 0.00 0.00 71 1018.0
20260503223326 45 290 8.0 0.0 0.00 0.00 0.00 71 1018.0
20260503221831 46 280 6.0 0.0 0.00 0.00 0.00 66 1018.0
20260503220356 46 280 6.0 0.0 0.00 0.00 0.00 66 1018.0
20260503214821 46 270 6.0 0.0 0.00 0.00 0.00 66 1019.0
20260503213314 46 270 6.0 0.0 0.00 0.00 0.00 66 1019.0
20260503211814 46 270 7.0 0.0 0.00 0.00 0.00 66 1019.0
20260503210314 46 270 7.0 0.0 0.00 0.00 0.00 66 1019.0
20260503204821 48 280 6.0 0.0 0.00 0.00 0.00 62 1019.0
20260503203430 48 280 6.0 0.0 0.00 0.00 0.00 62 1019.0
20260503201814 46 270 5.0 0.0 0.00 0.00 0.00 71 1019.0
20260503200323 46 270 5.0 0.0 0.00 0.00 0.00 71 1019.0
20260503194839 48 260 5.0 0.0 0.00 0.00 0.00 71 1019.0
20260503193430 48 260 5.0 0.0 0.00 0.00 0.00 71 1019.0
20260503191814 50 0 0.0 0.0 0.00 0.00 0.00 62 1019.0
20260503190314 50 0 0.0 0.0 0.00 0.00 0.00 62 1019.0
20260503184929 54 0 0.0 0.0 0.00 0.00 0.00 54 1019.0
20260503183313 54 0 0.0 0.0 0.00 0.00 0.00 54 1019.0
20260503181814 54 50 2.0 0.0 0.00 0.00 0.00 51 1019.0
20260503180314 54 50 2.0 0.0 0.00 0.00 0.00 51 1019.0
20260503174834 54 100 3.0 0.0 0.00 0.00 0.00 47 1019.0
20260503173339 54 100 3.0 0.0 0.00 0.00 0.00 47 1019.0
20260503171814 57 2.0 0.0 0.00 0.00 0.00 41 1019.0
20260503170314 57 2.0 0.0 0.00 0.00 0.00 41 1019.0
20260503150314 59 3.0 0.0 0.00 0.00 0.00 34 1019.0
20260503130314 57 20 5.0 0.0 0.00 0.00 0.00 39 1021.0
20260503110335 57 60 9.0 0.0 0.00 0.00 0.00 41 1022.0
20260503090335 57 70 10.0 0.0 0.00 0.00 0.00 39 1023.0
20260503080324 55 70 10.0 0.0 0.00 0.00 0.00 44 1023.0
20260503070315 52 10 7.0 0.0 0.00 0.00 0.00 50 1023.0
20260503060314 50 50 7.0 0.0 0.00 0.00 0.00 58 1023.0
20260503054814 48 30 5.0 0.0 0.00 0.00 0.00 62 1023.0
20260503053314 48 30 5.0 0.0 0.00 0.00 0.00 62 1023.0
20260503051814 45 20 3.0 0.0 0.00 0.00 0.00 71 1023.0
20260503050314 45 20 3.0 0.0 0.00 0.00 0.00 71 1023.0